Tracking 22130 objects as of 21-Jan-2021
HD Live streaming from Space Station
objects crossing your sky now

STARLINK-1371

Track STARLINK-1371 now!
10-day predictions
STARLINK-1371 is classified as:


NORAD ID: 45542
Int'l Code: 2020-025M
Perigee: 553.6 km
Apogee: 555.1 km
Inclination: 53.0 °
Period: 95.6 minutes
Semi major axis: 6925 km
RCS: Unknown
Launch date: April 22, 2020
Source: United States (US)
Launch site: AIR FORCE EASTERN TEST RANGE (AFETR)
aabbcc
Your satellite tracking list
Your tracking list is empty




NASA's NSSDC Master Catalog

Two Line Element Set (TLE):
1 45542U 20025M   21021.86814051  .00003212  00000-0  23446-3 0  9998
2 45542  53.0365 234.0125 0001052  53.5483 306.5602 15.06393941 42220
Source of the keplerian elements: AFSPC